TimeEDT,TemperatureF,Dew PointF,Humidity,Sea Level PressureIn,VisibilityMPH,Wind Direction,Wind SpeedMPH,Gust SpeedMPH,PrecipitationIn,Events,Conditions,WindDirDegrees,DateUTC
12:27 AM,75.2,71.6,89,29.85,10.0,SE,5.8,-,N/A,,Overcast,130,2011-10-12 04:27:00
12:53 AM,75.9,71.1,85,29.85,10.0,SE,3.5,-,N/A,,Overcast,130,2011-10-12 04:53:00
1:01 AM,75.2,71.6,89,29.85,10.0,Calm,Calm,-,N/A,,Overcast,0,2011-10-12 05:01:00
1:53 AM,75.9,71.1,85,29.84,10.0,Calm,Calm,-,N/A,,Mostly Cloudy,0,2011-10-12 05:53:00
2:53 AM,73.9,70.0,87,29.83,10.0,East,3.5,-,N/A,,Clear,100,2011-10-12 06:53:00
3:53 AM,73.0,70.0,90,29.82,10.0,Calm,Calm,-,N/A,,Clear,0,2011-10-12 07:53:00
4:53 AM,73.0,70.0,90,29.82,10.0,Calm,Calm,-,N/A,,Clear,0,2011-10-12 08:53:00
5:53 AM,73.0,70.0,90,29.83,10.0,SE,3.5,-,N/A,,Clear,140,2011-10-12 09:53:00
6:53 AM,73.0,70.0,90,29.85,10.0,Calm,Calm,-,N/A,,Unknown,0,2011-10-12 10:53:00
7:53 AM,73.9,71.1,91,29.86,10.0,Calm,Calm,-,N/A,,Mostly Cloudy,0,2011-10-12 11:53:00
8:53 AM,77.0,73.0,88,29.86,10.0,Calm,Calm,-,N/A,,Clear,0,2011-10-12 12:53:00
9:53 AM,82.0,71.1,69,29.86,10.0,WSW,4.6,-,N/A,,Clear,250,2011-10-12 13:53:00
10:53 AM,82.4,69.8,66,29.85,10.0,WSW,5.8,-,N/A,,Clear,240,2011-10-12 14:53:00
11:53 AM,84.0,70.0,63,29.86,10.0,WSW,6.9,-,N/A,,Scattered Clouds,250,2011-10-12 15:53:00
12:53 PM,84.9,70.0,61,29.85,10.0,West,8.1,-,N/A,,Clear,270,2011-10-12 16:53:00
1:53 PM,84.0,70.0,63,29.84,10.0,West,9.2,-,N/A,,Clear,280,2011-10-12 17:53:00
2:53 PM,82.9,69.1,63,29.81,10.0,West,8.1,-,N/A,,Clear,280,2011-10-12 18:53:00
3:53 PM,84.0,70.0,63,29.81,10.0,West,8.1,-,N/A,,Partly Cloudy,270,2011-10-12 19:53:00
4:53 PM,82.0,70.0,67,29.81,10.0,West,9.2,-,N/A,,Clear,280,2011-10-12 20:53:00
5:53 PM,82.0,70.0,67,29.80,10.0,West,8.1,-,N/A,,Clear,280,2011-10-12 21:53:00
6:53 PM,81.0,70.0,69,29.81,10.0,NW,6.9,-,N/A,,Scattered Clouds,310,2011-10-12 22:53:00
7:53 PM,79.0,70.0,74,29.81,10.0,NW,4.6,-,N/A,,Partly Cloudy,310,2011-10-12 23:53:00
8:53 PM,79.0,71.1,77,29.82,10.0,Calm,Calm,-,N/A,,Clear,0,2011-10-13 00:53:00
9:53 PM,78.1,71.1,79,29.83,10.0,Calm,Calm,-,N/A,,Clear,0,2011-10-13 01:53:00
10:53 PM,79.0,72.0,79,29.85,10.0,Calm,Calm,-,N/A,,Clear,0,2011-10-13 02:53:00
11:53 PM,75.9,72.0,87,29.84,10.0,Calm,Calm,-,N/A,,Clear,0,2011-10-13 03:53:00